Muscatine, IA

4:36 AM CST on December 14, 2019 (GMT -0600)
Muscatine Municipal

Weather History for KMUT - October, 2019

Change the Weather History Date:

Friday, October 11, 2019

  Actual Average Record
Temperature  
Mean Temperature 54 °F -  
Max Temperature 68 °F 66 °F 87 °F (1962)
Min Temperature 39 °F 43 °F 23 °F (1987)
Degree Days  
Heating Degree Days 12    
Growing Degree Days 4 (Base 50)    
Moisture  
Dew Point 35 °F    
Average Humidity 69    
Maximum Humidity 94    
Minimum Humidity 49    
Precipitation  
Precipitation 0.00 in - - ()
Sea Level Pressure  
Sea Level Pressure 30.00 in    
Wind  
Wind Speed 15 mph (West)    
Max Wind Speed 24 mph    
Max Gust Speed 33 mph    
Visibility 10 miles    
Events      
Averages and records for this station are not official NWS values.
T = Trace of Precipitation, MM = Missing Value Source: NWS Daily Summary

Daily Weather History Graph

Daily Weather History Graph

Search for Another Location

Airport or City:

Astronomy

Oct. 11, 2019 Rise Set
Actual Time 7:11 AM CDT 6:30 PM CDT
Civil Twilight 6:44 AM CDT 6:57 PM CDT
Nautical Twilight 6:12 AM CDT 7:29 PM CDT
Astronomical Twilight 5:39 AM CDT 8:01 PM CDT
Moon 6:01 PM CDT (10/11) 4:50 AM CDT (10/11)
Length of Visible Light 12h 13m
Length of Day
11h 18m
Waxing Gibbous, 96% of the Moon is Illuminated
Oct 11
Waxing Gibbous
Oct 13
Full
Oct 21
Last Quarter
Oct 27
New
Nov 4
First Quarter

Hourly Weather History & Observations

Time (CDT) Temp. Windchill Dew Point Humidity Pressure Visibility Wind Dir Wind Speed Gust Speed Precip Events Conditions
12:15 AM 66.2 °F - 64.4 °F 94% 29.79 in 10.0 mi South 10.4 mph - N/A   Overcast
12:35 AM 66.2 °F - 64.4 °F 94% 29.78 in 10.0 mi South 11.5 mph - N/A   Overcast
12:55 AM 68.0 °F - 64.4 °F 88% 29.78 in 10.0 mi South 11.5 mph - N/A   Overcast
1:15 AM 68.0 °F - 64.4 °F 88% 29.78 in 10.0 mi South 12.7 mph 19.6 mph N/A   Overcast
1:35 AM 55.4 °F - 53.6 °F 94% 29.81 in 10.0 mi West 19.6 mph 33.4 mph N/A   Overcast
1:55 AM 53.6 °F - 50.0 °F 88% 29.83 in 10.0 mi West 18.4 mph - N/A   Overcast
2:15 AM 51.8 °F - 48.2 °F 88% 29.84 in 10.0 mi WNW 10.4 mph 19.6 mph N/A   Overcast
2:35 AM 50.0 °F - 48.2 °F 94% 29.85 in 10.0 mi West 15.0 mph 20.7 mph N/A   Overcast
2:55 AM 50.0 °F - 46.4 °F 87% 29.87 in 10.0 mi West 13.8 mph - N/A   Overcast
3:15 AM 48.2 °F - 46.4 °F 93% 29.88 in 4.0 mi West 13.8 mph 21.9 mph N/A   Overcast
3:35 AM 48.2 °F - 46.4 °F 93% 29.88 in 5.0 mi West 12.7 mph 19.6 mph N/A   Overcast
3:55 AM 46.4 °F 39.5 °F 44.6 °F 93% 29.88 in 3.0 mi West 17.3 mph 24.2 mph N/A   Mist
4:15 AM 46.4 °F 40.7 °F 42.8 °F 87% 29.89 in 8.0 mi West 12.7 mph 21.9 mph N/A   Overcast
4:35 AM 46.4 °F 39.8 °F 42.8 °F 87% 29.90 in 7.0 mi West 16.1 mph - N/A   Light Drizzle
4:55 AM 44.6 °F 38.1 °F 42.8 °F 93% 29.91 in 4.0 mi West 13.8 mph - N/A   Light Drizzle
5:15 AM 44.6 °F 37.8 °F 41.0 °F 87% 29.93 in 10.0 mi West 15.0 mph 21.9 mph N/A   Overcast
5:35 AM 44.6 °F 38.1 °F 41.0 °F 87% 29.94 in 10.0 mi West 13.8 mph 19.6 mph N/A   Overcast
5:55 AM 42.8 °F 35.8 °F 41.0 °F 93% 29.95 in 10.0 mi West 13.8 mph 19.6 mph N/A   Overcast
6:15 AM 42.8 °F 36.2 °F 41.0 °F 93% 29.95 in 9.0 mi West 12.7 mph - N/A   Overcast
6:35 AM 42.8 °F 35.8 °F 39.2 °F 87% 29.96 in 10.0 mi WNW 13.8 mph 20.7 mph N/A   Overcast
6:55 AM 42.8 °F 35.8 °F 39.2 °F 87% 29.98 in 10.0 mi West 13.8 mph 20.7 mph N/A   Overcast
7:15 AM 41.0 °F 33.1 °F 37.4 °F 87% 29.98 in 10.0 mi West 15.0 mph - N/A   Overcast
7:35 AM 41.0 °F 34.7 °F 37.4 °F 87% 29.99 in 10.0 mi WNW 10.4 mph 21.9 mph N/A   Overcast
7:55 AM 41.0 °F 33.1 °F 37.4 °F 87% 29.98 in 10.0 mi West 15.0 mph - N/A   Overcast
8:55 AM 42.8 °F 34.8 °F 35.6 °F 76% 30.00 in 10.0 mi West 17.3 mph 24.2 mph N/A   Overcast
9:15 AM 41.0 °F 31.6 °F 33.8 °F 76% 30.00 in 10.0 mi West 20.7 mph 26.5 mph N/A   Overcast
9:35 AM 42.8 °F 35.4 °F 33.8 °F 70% 30.01 in 10.0 mi West 15.0 mph 21.9 mph N/A   Overcast
9:55 AM 42.8 °F 34.5 °F 33.8 °F 70% 30.02 in 10.0 mi West 18.4 mph 26.5 mph N/A   Overcast
10:15 AM 42.8 °F 35.1 °F 32.0 °F 66% 30.03 in 10.0 mi WNW 16.1 mph 24.2 mph N/A   Overcast
10:35 AM 42.8 °F 33.8 °F 33.8 °F 70% 30.02 in 10.0 mi West 21.9 mph - N/A   Overcast
10:55 AM 42.8 °F 35.1 °F 33.8 °F 70% 30.02 in 10.0 mi WNW 16.1 mph 23.0 mph N/A   Overcast
11:15 AM 42.8 °F 33.8 °F 32.0 °F 66% 30.03 in 10.0 mi WNW 21.9 mph - N/A   Overcast
11:35 AM 42.8 °F 35.1 °F 33.8 °F 70% 30.03 in 10.0 mi West 16.1 mph 26.5 mph N/A   Overcast
11:55 AM 42.8 °F 35.8 °F 32.0 °F 66% 30.04 in 10.0 mi WNW 13.8 mph 24.2 mph N/A   Overcast
12:15 PM 42.8 °F 34.3 °F 33.8 °F 70% 30.04 in 10.0 mi West 19.6 mph 26.5 mph N/A   Overcast
12:35 PM 42.8 °F 35.1 °F 32.0 °F 66% 30.05 in 10.0 mi West 16.1 mph 25.3 mph N/A   Overcast
12:55 PM 42.8 °F 34.5 °F 30.2 °F 61% 30.05 in 10.0 mi WNW 18.4 mph - N/A   Overcast
1:15 PM 42.8 °F 34.8 °F 30.2 °F 61% 30.05 in 10.0 mi WNW 17.3 mph 26.5 mph N/A   Overcast
1:35 PM 42.8 °F 33.8 °F 30.2 °F 61% 30.05 in 10.0 mi West 21.9 mph - N/A   Overcast
1:55 PM 44.6 °F 36.4 °F 30.2 °F 57% 30.05 in 10.0 mi WNW 20.7 mph 28.8 mph N/A   Overcast
2:15 PM 44.6 °F 35.7 °F 26.6 °F 49% 30.05 in 10.0 mi West 24.2 mph 32.2 mph N/A   Mostly Cloudy
2:35 PM 46.4 °F 39.2 °F 30.2 °F 53% 30.05 in 10.0 mi WNW 18.4 mph 27.6 mph N/A   Mostly Cloudy
2:55 PM 44.6 °F 36.6 °F 28.4 °F 53% 30.05 in 10.0 mi West 19.6 mph 25.3 mph N/A   Overcast
3:15 PM 44.6 °F 36.1 °F 28.4 °F 53% 30.05 in 10.0 mi West 21.9 mph - N/A   Overcast
3:35 PM 42.8 °F 35.1 °F 28.4 °F 57% 30.05 in 10.0 mi West 16.1 mph 24.2 mph N/A   Overcast
3:55 PM 44.6 °F 37.4 °F 28.4 °F 53% 30.05 in 10.0 mi West 16.1 mph 26.5 mph N/A   Overcast
4:15 PM 44.6 °F 36.9 °F 28.4 °F 53% 30.05 in 10.0 mi West 18.4 mph 26.5 mph N/A   Overcast
4:35 PM 44.6 °F 37.4 °F 26.6 °F 49% 30.06 in 10.0 mi West 16.1 mph 27.6 mph N/A   Overcast
4:55 PM 42.8 °F 33.8 °F 26.6 °F 53% 30.06 in 10.0 mi West 21.9 mph - N/A   Overcast
5:15 PM 42.8 °F 33.8 °F 24.8 °F 49% 30.07 in 10.0 mi West 21.9 mph 27.6 mph N/A   Overcast
5:35 PM 42.8 °F 34.0 °F 24.8 °F 49% 30.08 in 10.0 mi West 20.7 mph - N/A   Overcast
5:55 PM 42.8 °F 34.0 °F 24.8 °F 49% 30.08 in 10.0 mi West 20.7 mph 26.5 mph N/A   Overcast
6:15 PM 42.8 °F 35.8 °F 24.8 °F 49% 30.09 in 10.0 mi West 13.8 mph 25.3 mph N/A   Overcast
6:35 PM 42.8 °F 35.1 °F 24.8 °F 49% 30.09 in 10.0 mi West 16.1 mph - N/A   Overcast
6:55 PM 41.0 °F 33.1 °F 24.8 °F 53% 30.10 in 10.0 mi West 15.0 mph 27.6 mph N/A   Overcast
7:15 PM 41.0 °F 32.8 °F 24.8 °F 53% 30.10 in 10.0 mi West 16.1 mph 23.0 mph N/A   Overcast
7:35 PM 41.0 °F 34.7 °F 24.8 °F 53% 30.10 in 10.0 mi WSW 10.4 mph - N/A   Overcast
7:55 PM 41.0 °F 34.3 °F 24.8 °F 53% 30.10 in 10.0 mi WSW 11.5 mph - N/A   Overcast
8:15 PM 41.0 °F 33.9 °F 24.8 °F 53% 30.10 in 10.0 mi WSW 12.7 mph - N/A   Overcast
8:35 PM 41.0 °F 35.2 °F 26.6 °F 57% 30.10 in 10.0 mi WSW 9.2 mph 15.0 mph N/A   Mostly Cloudy
8:55 PM 39.2 °F 32.5 °F 26.6 °F 61% 30.10 in 10.0 mi WSW 10.4 mph - N/A   Mostly Cloudy
9:15 PM 41.0 °F 34.7 °F 26.6 °F 57% 30.10 in 10.0 mi WSW 10.4 mph - N/A   Overcast
9:35 PM 41.0 °F 34.3 °F 26.6 °F 57% 30.11 in 10.0 mi WSW 11.5 mph 17.3 mph N/A   Overcast
9:55 PM 41.0 °F 33.9 °F 26.6 °F 57% 30.11 in 10.0 mi WSW 12.7 mph 18.4 mph N/A   Overcast
10:15 PM 41.0 °F 33.9 °F 26.6 °F 57% 30.11 in 10.0 mi WSW 12.7 mph 18.4 mph N/A   Overcast
10:35 PM 41.0 °F 33.1 °F 24.8 °F 53% 30.11 in 10.0 mi West 15.0 mph 24.2 mph N/A   Overcast
10:55 PM 41.0 °F 33.1 °F 24.8 °F 53% 30.10 in 10.0 mi West 15.0 mph - N/A   Overcast
11:15 PM 41.0 °F 34.3 °F 24.8 °F 53% 30.10 in 10.0 mi West 11.5 mph - N/A   Overcast
11:35 PM 41.0 °F 34.3 °F 24.8 °F 53% 30.09 in 10.0 mi West 11.5 mph 17.3 mph N/A   Overcast
11:55 PM 41.0 °F 33.9 °F 24.8 °F 53% 30.10 in 10.0 mi West 12.7 mph 18.4 mph N/A   Overcast